Location: Bacharowice
(49.9333°N, 19.5833°E)
Time: 02:18:24
(UTC+00:00)

Cosmos 1709 Rocket - Pass Details

Date: 11 May 2021
Orbit: 948 x 1002 km, 82.9° (Epoch: 24 June)

Event Time Altitude Azimuth Distance (km) Brightness Sun altitude
Rises 19:15:50 0° 350° (N) 3,642 7.9 -8.7°
Reaches altitude 10° 19:18:21 10° 350° (N) 2,688 7.2 -9.0°
Maximum altitude 19:24:30 89° 266° (W) 956 4.0 -9.7°
Drops below altitude 10° 19:30:36 10° 173° (S) 2,667 5.8 -10.4°
Enters shadow 19:31:41 - 173° (S) 3,079 6.1 -10.5°
